^^
Datos históricos de la estación: Murcia-Puente Tocinos
Diario Informe para Enero 13, 2019 Unidades:  Métrico    Inglés   Ambas
Diario Semanal Mensual Anual Configurable
  Máximo: Mínimo: Media:
Temperatura: 17.7 °C 3.4 °C 9.4 °C
Punto de rocio: 3.9 °C -2.7 °C -0.1 °C
Humedad: 72% 30% 54%
Velocidad viento: 13.0km/h 0.0km/h 7.5km/h
Racha viento: 20.4km/h - -
Viento- - SSW
Presión: 1027.3 hPa 1021.2 hPa -
Precipitación: 0.0 mm    
Historical Graphs
 
 
Tabla de datos para Enero 13, 2019
Hora Temperatura Punto de rocio Presión Viento Velocidad viento Racha viento Humedad Intensidad lluvia(por hora) Nubes
00:00 6.0 °C -0.3 °C 1027.2 hPa South 8.0 km/h 9.7 km/h 64% 0.0 mm CLR
00:05 6.0 °C -0.3 °C 1027.3 hPa SSW 6.9 km/h 7.4 km/h 64% 0.0 mm CLR
00:10 6.0 °C -0.3 °C 1027.3 hPa South 5.0 km/h 7.6 km/h 64% 0.0 mm CLR
00:15 5.8 °C -0.5 °C 1027.3 hPa South 5.0 km/h 7.4 km/h 64% 0.0 mm CLR
00:20 5.6 °C -0.4 °C 1027.3 hPa SSE 4.7 km/h 7.4 km/h 65% 0.0 mm CLR
00:25 5.3 °C -0.6 °C 1027.3 hPa SSE 4.7 km/h 7.4 km/h 66% 0.0 mm CLR
00:30 5.2 °C -0.4 °C 1027.3 hPa SSE 5.0 km/h 8.4 km/h 67% 0.0 mm CLR
00:35 5.1 °C -0.3 °C 1027.2 hPa South 5.0 km/h 7.6 km/h 68% 0.0 mm CLR
00:40 5.2 °C -0.2 °C 1027.2 hPa South 5.8 km/h 9.3 km/h 68% 0.0 mm CLR
00:45 5.3 °C -0.1 °C 1027.2 hPa South 5.8 km/h 9.3 km/h 68% 0.0 mm CLR
00:50 5.4 °C -0.1 °C 1027.1 hPa South 6.9 km/h 3.7 km/h 68% 0.0 mm CLR
00:55 5.4 °C -0.1 °C 1027.1 hPa South 6.9 km/h 7.4 km/h 68% 0.0 mm CLR
01:00 5.4 °C -0.1 °C 1027.1 hPa South 3.2 km/h 9.7 km/h 68% 0.0 mm CLR
01:04 5.3 °C -0.1 °C 1027.0 hPa South 3.9 km/h 7.4 km/h 68% 0.0 mm CLR
01:09 5.3 °C -0.1 °C 1027.0 hPa South 5.0 km/h 7.4 km/h 68% 0.0 mm CLR
01:14 5.2 °C -0.2 °C 1027.0 hPa South 5.0 km/h 7.4 km/h 68% 0.0 mm CLR
01:19 5.2 °C -0.1 °C 1026.9 hPa South 5.0 km/h 11.1 km/h 69% 0.0 mm CLR
01:24 5.1 °C -0.1 °C 1026.9 hPa SSE 5.0 km/h 7.4 km/h 69% 0.0 mm CLR
01:29 4.9 °C -0.3 °C 1026.9 hPa South 6.9 km/h 9.3 km/h 69% 0.0 mm CLR
01:34 4.8 °C -0.2 °C 1026.9 hPa SSW 6.9 km/h 9.3 km/h 70% 0.0 mm CLR
01:39 4.6 °C -0.4 °C 1026.9 hPa South 6.9 km/h 13.0 km/h 70% 0.0 mm CLR
01:44 4.3 °C -0.5 °C 1026.9 hPa South 6.9 km/h 11.1 km/h 71% 0.0 mm CLR
01:49 4.1 °C -0.5 °C 1026.5 hPa South 8.4 km/h 14.8 km/h 72% 0.0 mm CLR
01:54 3.9 °C -0.7 °C 1026.5 hPa South 8.4 km/h 14.8 km/h 72% 0.0 mm CLR
01:59 3.9 °C -0.9 °C 1026.5 hPa South 10.3 km/h 13.0 km/h 71% 0.0 mm CLR
02:04 3.9 °C -1.1 °C 1026.6 hPa South 10.3 km/h 11.1 km/h 70% 0.0 mm CLR
02:09 3.9 °C -1.3 °C 1026.6 hPa SSW 9.5 km/h 13.0 km/h 69% 0.0 mm CLR
02:14 3.9 °C -1.7 °C 1026.6 hPa South 9.5 km/h 16.4 km/h 67% 0.0 mm CLR
02:19 4.1 °C -1.9 °C 1026.4 hPa South 11.1 km/h 13.0 km/h 65% 0.0 mm CLR
02:24 4.3 °C -1.7 °C 1026.4 hPa SSW 11.1 km/h 14.8 km/h 65% 0.0 mm CLR
02:29 4.4 °C -1.4 °C 1026.4 hPa SSW 9.5 km/h 13.0 km/h 66% 0.0 mm CLR
02:34 4.6 °C -1.0 °C 1026.3 hPa SSW 9.5 km/h 13.0 km/h 67% 0.0 mm CLR
02:39 4.7 °C -0.9 °C 1026.3 hPa SSW 9.5 km/h 11.1 km/h 67% 0.0 mm CLR
02:44 4.8 °C -0.8 °C 1026.3 hPa South 9.5 km/h 13.0 km/h 67% 0.0 mm CLR
02:49 4.9 °C -0.7 °C 1026.3 hPa SW 9.5 km/h 14.8 km/h 67% 0.0 mm CLR
02:54 4.9 °C -0.7 °C 1026.3 hPa SSW 9.5 km/h 7.4 km/h 67% 0.0 mm CLR
02:59 4.8 °C -0.8 °C 1026.3 hPa SW 7.6 km/h 9.3 km/h 67% 0.0 mm CLR
03:04 4.6 °C -1.0 °C 1026.4 hPa SW 7.6 km/h 11.1 km/h 67% 0.0 mm CLR
03:09 4.5 °C -0.9 °C 1026.4 hPa WSW 7.6 km/h 11.1 km/h 68% 0.0 mm CLR
03:14 4.4 °C -1.0 °C 1026.4 hPa West 7.6 km/h 7.4 km/h 68% 0.0 mm CLR
03:19 4.4 °C -1.0 °C 1026.3 hPa SSW 6.9 km/h 9.3 km/h 68% 0.0 mm CLR
03:24 4.3 °C -0.9 °C 1026.3 hPa SW 6.9 km/h 13.0 km/h 69% 0.0 mm CLR
03:29 4.3 °C -1.1 °C 1026.3 hPa SW 6.4 km/h 14.8 km/h 68% 0.0 mm CLR
03:34 4.3 °C -1.1 °C 1026.2 hPa SSW 6.4 km/h 9.3 km/h 68% 0.0 mm CLR
03:39 4.4 °C -1.0 °C 1026.2 hPa SW 7.6 km/h 14.8 km/h 68% 0.0 mm CLR
03:44 4.5 °C -1.3 °C 1026.2 hPa SSW 7.6 km/h 15.6 km/h 66% 0.0 mm CLR
03:49 4.5 °C -1.3 °C 1025.9 hPa SSW 10.3 km/h 14.8 km/h 66% 0.0 mm CLR
03:54 4.3 °C -1.5 °C 1025.9 hPa SSW 10.3 km/h 18.5 km/h 66% 0.0 mm CLR
03:59 4.2 °C -1.4 °C 1025.9 hPa SSW 11.1 km/h 11.1 km/h 67% 0.0 mm CLR
04:04 4.1 °C -1.5 °C 1025.7 hPa SSW 11.1 km/h 11.1 km/h 67% 0.0 mm CLR
04:09 4.1 °C -1.5 °C 1025.7 hPa WSW 8.4 km/h 7.4 km/h 67% 0.0 mm CLR
04:14 4.1 °C -1.7 °C 1025.7 hPa SSW 8.4 km/h 13.0 km/h 66% 0.0 mm CLR
04:19 4.1 °C -1.9 °C 1025.7 hPa SSW 6.9 km/h 11.1 km/h 65% 0.0 mm CLR
04:24 4.1 °C -1.7 °C 1025.7 hPa SSW 6.9 km/h 11.1 km/h 66% 0.0 mm CLR
04:29 4.1 °C -1.7 °C 1025.7 hPa SW 7.6 km/h 9.3 km/h 66% 0.0 mm CLR
04:34 4.0 °C -1.8 °C 1025.7 hPa SSW 7.6 km/h 11.1 km/h 66% 0.0 mm CLR
04:39 4.0 °C -1.6 °C 1025.7 hPa South 8.4 km/h 13.0 km/h 67% 0.0 mm CLR
04:44 3.9 °C -1.7 °C 1025.7 hPa SSW 8.4 km/h 9.3 km/h 67% 0.0 mm CLR
04:49 3.8 °C -1.8 °C 1025.8 hPa South 6.9 km/h 11.9 km/h 67% 0.0 mm CLR
04:54 3.7 °C -1.7 °C 1025.8 hPa South 6.9 km/h 11.1 km/h 68% 0.0 mm CLR
04:59 3.6 °C -1.8 °C 1025.8 hPa SSE 8.4 km/h 13.0 km/h 68% 0.0 mm CLR
05:04 3.5 °C -1.8 °C 1025.9 hPa SSE 8.4 km/h 11.1 km/h 68% 0.0 mm CLR
05:09 3.4 °C -1.9 °C 1025.9 hPa South 8.7 km/h 13.0 km/h 68% 0.0 mm CLR
05:14 3.4 °C -1.9 °C 1025.9 hPa SSW 8.7 km/h 13.0 km/h 68% 0.0 mm CLR
05:19 3.4 °C -1.9 °C 1025.8 hPa South 9.5 km/h 16.7 km/h 68% 0.0 mm CLR
05:24 3.4 °C -1.9 °C 1025.8 hPa SSW 9.5 km/h 16.7 km/h 68% 0.0 mm CLR
05:29 3.5 °C -2.1 °C 1025.8 hPa SW 11.1 km/h 14.8 km/h 67% 0.0 mm CLR
05:34 3.6 °C -2.2 °C 1025.7 hPa SSW 11.1 km/h 14.8 km/h 66% 0.0 mm CLR
05:39 3.7 °C -2.1 °C 1025.7 hPa SSW 11.1 km/h 18.5 km/h 66% 0.0 mm CLR
05:44 3.8 °C -2.2 °C 1025.7 hPa South 11.1 km/h 16.7 km/h 65% 0.0 mm CLR
05:49 3.9 °C -2.1 °C 1025.7 hPa SW 11.9 km/h 11.1 km/h 65% 0.0 mm CLR
05:54 3.9 °C -2.3 °C 1025.7 hPa West 11.9 km/h 11.1 km/h 64% 0.0 mm CLR
05:59 4.0 °C -2.2 °C 1025.7 hPa WSW 8.4 km/h 9.3 km/h 64% 0.0 mm CLR
06:04 4.1 °C -2.3 °C 1025.6 hPa WSW 8.4 km/h 8.4 km/h 63% 0.0 mm CLR
06:09 4.1 °C -2.3 °C 1025.6 hPa WSW 6.4 km/h 9.3 km/h 63% 0.0 mm CLR
06:14 4.2 °C -2.4 °C 1025.6 hPa WSW 6.4 km/h 11.1 km/h 62% 0.0 mm CLR
06:19 4.2 °C -2.4 °C 1025.6 hPa SSW 7.6 km/h 11.1 km/h 62% 0.0 mm CLR
06:24 4.1 °C -2.6 °C 1025.6 hPa SSW 7.6 km/h 11.1 km/h 62% 0.0 mm CLR
06:29 4.1 °C -2.6 °C 1025.6 hPa SSW 7.6 km/h 11.9 km/h 62% 0.0 mm CLR
06:34 3.9 °C -2.7 °C 1025.3 hPa SW 7.6 km/h 11.1 km/h 62% 0.0 mm CLR
06:39 3.7 °C -2.7 °C 1025.3 hPa WSW 8.4 km/h 11.1 km/h 63% 0.0 mm CLR
06:44 3.7 °C -2.7 °C 1025.3 hPa SSW 8.4 km/h 7.4 km/h 63% 0.0 mm CLR
06:49 3.7 °C -2.7 °C 1025.3 hPa SW 6.4 km/h 9.3 km/h 63% 0.0 mm CLR
06:54 3.7 °C -2.7 °C 1025.3 hPa SW 6.4 km/h 13.0 km/h 63% 0.0 mm CLR
06:59 3.8 °C -2.6 °C 1025.3 hPa West 6.9 km/h 11.1 km/h 63% 0.0 mm CLR
07:04 3.9 °C -2.7 °C 1025.0 hPa West 6.9 km/h 13.0 km/h 62% 0.0 mm CLR
07:09 3.9 °C -2.7 °C 1025.0 hPa SW 8.4 km/h 14.8 km/h 62% 0.0 mm CLR
07:14 3.9 °C -2.7 °C 1025.0 hPa SSW 8.4 km/h 13.0 km/h 62% 0.0 mm CLR
07:19 4.2 °C -2.4 °C 1025.0 hPa WSW 9.5 km/h 14.8 km/h 62% 0.0 mm CLR
07:24 4.5 °C -2.6 °C 1025.0 hPa SSW 9.5 km/h 13.0 km/h 60% 0.0 mm CLR
07:29 4.8 °C -2.6 °C 1025.0 hPa WSW 10.0 km/h 14.8 km/h 59% 0.0 mm CLR
07:34 4.8 °C -2.6 °C 1025.1 hPa SSW 10.0 km/h 11.1 km/h 59% 0.0 mm CLR
07:39 4.8 °C -2.6 °C 1025.1 hPa SW 7.6 km/h 11.1 km/h 59% 0.0 mm CLR
07:44 4.7 °C -2.4 °C 1025.1 hPa WSW 7.6 km/h 9.3 km/h 60% 0.0 mm CLR
07:49 4.7 °C -2.4 °C 1025.3 hPa WSW 6.4 km/h 9.3 km/h 60% 0.0 mm CLR
07:54 4.7 °C -2.4 °C 1025.3 hPa SW 6.4 km/h 11.1 km/h 60% 0.0 mm CLR
07:59 4.7 °C -2.4 °C 1025.3 hPa WSW 7.6 km/h 11.1 km/h 60% 0.0 mm CLR
08:04 4.7 °C -2.4 °C 1025.4 hPa SW 7.6 km/h 8.4 km/h 60% 0.0 mm CLR
08:09 4.8 °C -2.3 °C 1025.4 hPa South 6.9 km/h 9.3 km/h 60% 0.0 mm CLR
08:14 5.0 °C -2.3 °C 1025.4 hPa South 6.9 km/h 9.3 km/h 59% 0.0 mm CLR
08:19 5.2 °C -2.4 °C 1025.4 hPa South 7.6 km/h 11.1 km/h 58% 0.0 mm CLR
08:24 5.3 °C -2.3 °C 1025.4 hPa SSE 7.6 km/h 11.1 km/h 58% 0.0 mm CLR
08:29 5.2 °C -2.4 °C 1025.4 hPa SSE 8.7 km/h 13.0 km/h 58% 0.0 mm CLR
08:34 4.9 °C -2.7 °C 1025.4 hPa South 8.7 km/h 16.7 km/h 58% 0.0 mm CLR
08:39 4.8 °C -2.6 °C 1025.4 hPa SSE 11.1 km/h 13.0 km/h 59% 0.0 mm CLR
08:44 4.7 °C -2.7 °C 1025.4 hPa South 11.1 km/h 16.7 km/h 59% 0.0 mm CLR
08:49 4.7 °C -2.4 °C 1025.3 hPa SSE 10.0 km/h 13.0 km/h 60% 0.0 mm CLR
08:54 4.7 °C -2.4 °C 1025.3 hPa South 10.0 km/h 11.1 km/h 60% 0.0 mm CLR
08:59 4.7 °C -2.4 °C 1025.3 hPa SW 8.7 km/h 9.3 km/h 60% 0.0 mm CLR
09:04 4.8 °C -2.3 °C 1025.3 hPa SSW 8.7 km/h 13.0 km/h 60% 0.0 mm CLR
09:09 5.0 °C -2.3 °C 1025.3 hPa SW 8.7 km/h 9.3 km/h 59% 0.0 mm CLR
09:14 5.2 °C -2.2 °C 1025.3 hPa SW 8.7 km/h 13.0 km/h 59% 0.0 mm CLR
09:19 5.3 °C -2.3 °C 1025.4 hPa SW 8.4 km/h 11.1 km/h 58% 0.0 mm CLR
09:24 5.4 °C -2.2 °C 1025.4 hPa WSW 8.4 km/h 9.3 km/h 58% 0.0 mm CLR
09:29 5.7 °C -2.2 °C 1025.4 hPa SW 7.6 km/h 9.5 km/h 57% 0.0 mm CLR
09:34 5.7 °C -2.2 °C 1025.4 hPa SW 7.6 km/h 11.1 km/h 57% 0.0 mm CLR
09:39 6.2 °C -1.9 °C 1025.6 hPa SW 6.9 km/h 9.3 km/h 56% 0.0 mm CLR
09:44 6.4 °C -2.0 °C 1025.6 hPa SW 6.9 km/h 7.4 km/h 55% 0.0 mm CLR
09:49 6.9 °C -1.8 °C 1025.9 hPa SSW 5.8 km/h 13.0 km/h 54% 0.0 mm CLR
09:54 7.3 °C -1.7 °C 1025.9 hPa South 5.8 km/h 13.0 km/h 53% 0.0 mm CLR
09:59 7.5 °C -1.5 °C 1025.9 hPa SSE 8.4 km/h 18.5 km/h 53% 0.0 mm CLR
10:04 7.3 °C -1.7 °C 1026.0 hPa SSE 8.4 km/h 18.5 km/h 53% 0.0 mm CLR
10:09 7.2 °C -1.5 °C 1026.0 hPa South 13.0 km/h 18.5 km/h 54% 0.0 mm CLR
10:14 6.9 °C -1.6 °C 1026.0 hPa South 13.0 km/h 16.7 km/h 55% 0.0 mm CLR
10:19 6.8 °C -1.4 °C 1026.0 hPa SSE 13.0 km/h 18.5 km/h 56% 0.0 mm CLR
10:24 6.9 °C -1.3 °C 1026.0 hPa South 13.0 km/h 16.7 km/h 56% 0.0 mm CLR
10:29 7.2 °C -1.0 °C 1026.0 hPa South 11.9 km/h 18.5 km/h 56% 0.0 mm CLR
10:34 7.5 °C -0.7 °C 1026.2 hPa SSE 11.9 km/h 13.0 km/h 56% 0.0 mm CLR
10:39 7.9 °C -0.6 °C 1026.2 hPa SSW 10.3 km/h 13.0 km/h 55% 0.0 mm CLR
10:44 8.2 °C -0.6 °C 1026.2 hPa South 10.3 km/h 14.8 km/h 54% 0.0 mm CLR
10:49 8.6 °C -0.7 °C 1026.2 hPa SSE 10.3 km/h 13.0 km/h 52% 0.0 mm CLR
10:54 9.1 °C -0.5 °C 1026.2 hPa South 10.3 km/h 14.8 km/h 51% 0.0 mm CLR
10:59 9.7 °C -0.2 °C 1026.2 hPa South 11.9 km/h 18.5 km/h 50% 0.0 mm CLR
11:04 10.2 °C -0.3 °C 1026.3 hPa SSW 11.9 km/h 14.8 km/h 48% 0.0 mm CLR
11:09 10.5 °C -0.3 °C 1026.3 hPa SW 11.9 km/h 13.0 km/h 47% 0.0 mm CLR
11:14 10.9 °C -0.3 °C 1026.3 hPa WSW 11.9 km/h 11.9 km/h 46% 0.0 mm CLR
11:19 11.1 °C -0.4 °C 1026.4 hPa WSW 8.7 km/h 14.8 km/h 45% 0.0 mm CLR
11:24 11.2 °C -0.3 °C 1026.4 hPa SSW 8.7 km/h 11.1 km/h 45% 0.0 mm CLR
11:29 11.4 °C -0.4 °C 1026.4 hPa SW 8.4 km/h 11.9 km/h 44% 0.0 mm CLR
11:34 11.6 °C -0.6 °C 1026.1 hPa WSW 8.4 km/h 20.4 km/h 43% 0.0 mm CLR
11:39 11.7 °C -0.5 °C 1026.1 hPa SW 10.0 km/h 18.5 km/h 43% 0.0 mm CLR
11:44 11.9 °C -0.6 °C 1026.1 hPa SSE 10.0 km/h 14.8 km/h 42% 0.0 mm CLR
11:49 12.1 °C -0.4 °C 1025.9 hPa SW 10.3 km/h 18.5 km/h 42% 0.0 mm CLR
11:54 12.2 °C -0.7 °C 1025.9 hPa SW 10.3 km/h 20.4 km/h 41% 0.0 mm CLR
11:59 12.3 °C -0.9 °C 1025.9 hPa WSW 11.9 km/h 20.4 km/h 40% 0.0 mm CLR
12:04 12.5 °C -0.8 °C 1025.7 hPa SW 11.9 km/h 16.7 km/h 40% 0.0 mm CLR
12:09 12.7 °C -0.9 °C 1025.7 hPa SW 11.9 km/h 14.8 km/h 39% 0.0 mm CLR
12:14 12.9 °C -0.4 °C 1025.7 hPa SW 11.9 km/h 13.0 km/h 40% 0.0 mm CLR
12:19 13.0 °C -0.7 °C 1025.4 hPa SW 8.7 km/h 13.0 km/h 39% 0.0 mm CLR
12:24 13.2 °C -0.4 °C 1025.4 hPa SSW 8.7 km/h 13.0 km/h 39% 0.0 mm CLR
12:29 13.1 °C -0.9 °C 1025.4 hPa WSW 6.9 km/h 14.8 km/h 38% 0.0 mm CLR
12:34 13.1 °C -0.9 °C 1024.9 hPa West 6.9 km/h 11.1 km/h 38% 0.0 mm CLR
12:39 13.2 °C -0.8 °C 1024.9 hPa SW 8.4 km/h 9.3 km/h 38% 0.0 mm CLR
12:44 13.4 °C -0.7 °C 1024.9 hPa SW 8.4 km/h 14.8 km/h 38% 0.0 mm CLR
12:49 13.6 °C -0.8 °C 1024.2 hPa South 5.8 km/h 9.3 km/h 37% 0.0 mm CLR
12:54 13.7 °C -0.7 °C 1024.2 hPa SW 5.8 km/h 13.0 km/h 37% 0.0 mm CLR
12:59 13.8 °C -0.7 °C 1024.2 hPa SW 6.9 km/h 16.7 km/h 37% 0.0 mm CLR
13:04 13.8 °C -0.7 °C 1024.1 hPa WSW 6.9 km/h 9.3 km/h 37% 0.0 mm CLR
13:09 13.7 °C -0.7 °C 1024.1 hPa WSW 7.6 km/h 11.1 km/h 37% 0.0 mm CLR
13:14 13.8 °C -0.7 °C 1024.1 hPa West 7.6 km/h 10.0 km/h 37% 0.0 mm CLR
13:19 13.9 °C -0.9 °C 1023.8 hPa West 6.4 km/h 7.6 km/h 36% 0.0 mm CLR
13:24 14.1 °C -0.8 °C 1023.8 hPa SW 6.4 km/h 16.7 km/h 36% 0.0 mm CLR
13:29 14.2 °C -0.7 °C 1023.8 hPa SSW 6.9 km/h 14.8 km/h 36% 0.0 mm CLR
13:34 14.4 °C -0.5 °C 1023.5 hPa SSW 6.9 km/h 18.5 km/h 36% 0.0 mm CLR
13:39 14.6 °C -0.7 °C 1023.5 hPa SSW 9.5 km/h 11.1 km/h 35% 0.0 mm CLR
13:44 14.7 °C -0.6 °C 1023.5 hPa SSW 9.5 km/h 13.0 km/h 35% 0.0 mm CLR
13:49 14.7 °C -1.0 °C 1023.2 hPa SW 8.7 km/h 13.0 km/h 34% 0.0 mm CLR
13:54 14.8 °C -0.6 °C 1023.2 hPa SW 8.7 km/h 13.0 km/h 35% 0.0 mm CLR
13:59 15.0 °C -0.8 °C 1023.2 hPa South 8.4 km/h 14.8 km/h 34% 0.0 mm CLR
14:04 15.2 °C -1.0 °C 1022.9 hPa SW 8.4 km/h 14.8 km/h 33% 0.0 mm CLR
14:09 15.1 °C -0.7 °C 1022.9 hPa SW 10.0 km/h 11.1 km/h 34% 0.0 mm CLR
14:14 15.2 °C -0.6 °C 1022.9 hPa SW 10.0 km/h 11.1 km/h 34% 0.0 mm CLR
14:19 15.4 °C -0.8 °C 1022.7 hPa SW 9.5 km/h 14.8 km/h 33% 0.0 mm CLR
14:24 15.6 °C -0.6 °C 1022.7 hPa SSW 9.5 km/h 8.7 km/h 33% 0.0 mm CLR
14:29 15.8 °C -0.4 °C 1022.7 hPa WSW 8.4 km/h 14.8 km/h 33% 0.0 mm CLR
14:34 15.9 °C -0.4 °C 1022.5 hPa SSW 8.4 km/h 11.9 km/h 33% 0.0 mm CLR
14:39 16.1 °C -0.6 °C 1022.5 hPa SW 7.6 km/h 10.0 km/h 32% 0.0 mm CLR
14:44 16.1 °C -0.6 °C 1022.5 hPa SSW 7.6 km/h 11.1 km/h 32% 0.0 mm CLR
14:49 16.3 °C -0.4 °C 1022.3 hPa WSW 8.4 km/h 11.1 km/h 32% 0.0 mm CLR
14:54 16.4 °C -0.3 °C 1022.3 hPa SSW 8.4 km/h 11.1 km/h 32% 0.0 mm CLR
14:59 16.4 °C -0.8 °C 1022.3 hPa South 8.4 km/h 13.0 km/h 31% 0.0 mm CLR
15:04 16.5 °C -0.7 °C 1022.2 hPa SSE 8.4 km/h 13.0 km/h 31% 0.0 mm CLR
15:09 16.6 °C -0.6 °C 1022.2 hPa SSE 9.5 km/h 14.8 km/h 31% 0.0 mm CLR
15:14 16.6 °C -0.2 °C 1022.2 hPa SW 9.5 km/h 7.4 km/h 32% 0.0 mm CLR
15:19 16.8 °C -0.4 °C 1022.1 hPa SSE 6.9 km/h 11.1 km/h 31% 0.0 mm CLR
15:24 16.9 °C -0.3 °C 1022.1 hPa SSW 6.9 km/h 9.3 km/h 31% 0.0 mm CLR
15:29 16.9 °C -0.3 °C 1022.1 hPa SSW 7.6 km/h 9.5 km/h 31% 0.0 mm CLR
15:34 17.0 °C -0.3 °C 1021.9 hPa SSW 7.6 km/h 13.0 km/h 31% 0.0 mm CLR
15:39 17.0 °C -0.3 °C 1021.9 hPa South 8.4 km/h 11.1 km/h 31% 0.0 mm CLR
15:44 17.1 °C -0.2 °C 1021.9 hPa South 8.4 km/h 7.4 km/h 31% 0.0 mm CLR
15:49 17.2 °C -0.1 °C 1021.8 hPa SSW 8.4 km/h 6.4 km/h 31% 0.0 mm CLR
15:54 17.4 °C -0.4 °C 1021.8 hPa SW 8.4 km/h 9.3 km/h 30% 0.0 mm CLR
15:59 17.4 °C -0.4 °C 1021.8 hPa SSW 6.4 km/h 10.0 km/h 30% 0.0 mm CLR
16:04 17.5 °C -0.3 °C 1021.5 hPa SSW 6.4 km/h 10.0 km/h 30% 0.0 mm CLR
16:09 17.6 °C -0.2 °C 1021.5 hPa South 6.4 km/h 11.1 km/h 30% 0.0 mm CLR
16:14 17.5 °C -0.3 °C 1021.5 hPa SSE 6.4 km/h 9.5 km/h 30% 0.0 mm CLR
16:19 17.5 °C -0.3 °C 1021.4 hPa SSE 6.9 km/h 9.3 km/h 30% 0.0 mm CLR
16:24 17.7 °C -0.1 °C 1021.4 hPa South 6.9 km/h 7.6 km/h 30% 0.0 mm CLR
16:29 17.7 °C -0.1 °C 1021.4 hPa SSE 6.4 km/h 11.1 km/h 30% 0.0 mm CLR
16:34 17.7 °C -0.1 °C 1021.4 hPa SE 6.4 km/h 9.3 km/h 30% 0.0 mm CLR
16:39 17.7 °C -0.1 °C 1021.4 hPa SSE 6.9 km/h 9.3 km/h 30% 0.0 mm CLR
16:44 17.7 °C 0.3 °C 1021.4 hPa SSE 6.9 km/h 9.3 km/h 31% 0.0 mm CLR
16:49 17.7 °C -0.1 °C 1021.4 hPa SSE 6.9 km/h 9.3 km/h 30% 0.0 mm CLR
16:54 17.6 °C -0.2 °C 1021.4 hPa SE 6.9 km/h 11.1 km/h 30% 0.0 mm CLR
16:59 17.6 °C -0.2 °C 1021.4 hPa SE 6.9 km/h 9.3 km/h 30% 0.0 mm CLR
17:04 17.6 °C 0.3 °C 1021.2 hPa SE 6.9 km/h 7.4 km/h 31% 0.0 mm CLR
17:09 17.6 °C 0.3 °C 1021.2 hPa ESE 5.0 km/h 9.5 km/h 31% 0.0 mm CLR
17:14 17.4 °C 0.1 °C 1021.2 hPa ESE 5.0 km/h 11.1 km/h 31% 0.0 mm CLR
17:19 17.3 °C 0.0 °C 1021.3 hPa ESE 8.4 km/h 11.1 km/h 31% 0.0 mm CLR
17:24 17.1 °C 0.3 °C 1021.3 hPa SE 8.4 km/h 11.1 km/h 32% 0.0 mm CLR
17:29 17.1 °C 0.3 °C 1021.3 hPa SE 7.6 km/h 9.5 km/h 32% 0.0 mm CLR
17:34 16.9 °C 0.1 °C 1021.3 hPa SE 7.6 km/h 10.0 km/h 32% 0.0 mm CLR
17:39 16.9 °C 0.1 °C 1021.3 hPa ESE 6.9 km/h 8.7 km/h 32% 0.0 mm CLR
17:44 16.8 °C 0.4 °C 1021.3 hPa SE 6.9 km/h 9.3 km/h 33% 0.0 mm CLR
17:49 16.7 °C 0.3 °C 1021.3 hPa SE 6.4 km/h 7.4 km/h 33% 0.0 mm CLR
17:54 16.7 °C 0.3 °C 1021.3 hPa SE 6.4 km/h 5.6 km/h 33% 0.0 mm CLR
17:59 16.6 °C 0.7 °C 1021.3 hPa SE 5.0 km/h 3.7 km/h 34% 0.0 mm CLR
18:04 16.4 °C 0.5 °C 1021.4 hPa SE 5.0 km/h   34% 0.0 mm CLR
18:09 16.3 °C 0.4 °C 1021.4 hPa SE 2.3 km/h   34% 0.0 mm CLR
18:14 16.1 °C 0.6 °C 1021.4 hPa SE 2.3 km/h 3.7 km/h 35% 0.0 mm CLR
18:19 15.9 °C 0.4 °C 1021.6 hPa Calm   3.2 km/h 35% 0.0 mm CLR
18:24 15.7 °C 0.7 °C 1021.6 hPa Calm   5.0 km/h 36% 0.0 mm CLR
18:29 15.3 °C 0.7 °C 1021.6 hPa ESE 3.2 km/h 7.4 km/h 37% 0.0 mm CLR
18:34 14.8 °C 0.9 °C 1021.7 hPa SSE 3.2 km/h 9.3 km/h 39% 0.0 mm CLR
18:39 14.3 °C 1.2 °C 1021.7 hPa SSW 7.6 km/h 7.6 km/h 41% 0.0 mm CLR
18:44 14.2 °C 1.8 °C 1021.7 hPa SW 7.6 km/h 9.3 km/h 43% 0.0 mm CLR
18:49 14.2 °C 1.8 °C 1022.2 hPa SW 5.8 km/h 6.4 km/h 43% 0.0 mm CLR
18:54 13.9 °C 2.2 °C 1022.2 hPa SW 5.8 km/h 9.3 km/h 45% 0.0 mm CLR
18:59 13.8 °C 2.4 °C 1022.2 hPa SW 5.8 km/h 11.1 km/h 46% 0.0 mm CLR
19:04 13.6 °C 2.8 °C 1022.3 hPa WSW 5.8 km/h 7.4 km/h 48% 0.0 mm CLR
19:09 13.4 °C 2.9 °C 1022.3 hPa SW 5.8 km/h 7.6 km/h 49% 0.0 mm CLR
19:15 13.2 °C 3.0 °C 1022.3 hPa SSW 5.8 km/h 11.1 km/h 50% 0.0 mm CLR
19:19 13.1 °C 2.9 °C 1022.5 hPa SSW 5.8 km/h 3.9 km/h 50% 0.0 mm CLR
19:24 12.9 °C 3.0 °C 1022.5 hPa WSW 5.8 km/h 11.1 km/h 51% 0.0 mm CLR
19:29 12.7 °C 3.1 °C 1022.5 hPa SW 4.7 km/h 7.4 km/h 52% 0.0 mm CLR
19:34 12.6 °C 3.3 °C 1022.5 hPa SW 4.7 km/h 7.4 km/h 53% 0.0 mm CLR
19:39 12.4 °C 3.3 °C 1022.5 hPa SW 6.9 km/h 9.3 km/h 54% 0.0 mm CLR
19:44 12.3 °C 3.2 °C 1022.5 hPa SSW 6.9 km/h 7.4 km/h 54% 0.0 mm CLR
19:49 12.2 °C 3.4 °C 1022.4 hPa SSW 6.4 km/h 9.5 km/h 55% 0.0 mm CLR
19:54 11.9 °C 3.4 °C 1022.4 hPa South 6.4 km/h 13.0 km/h 56% 0.0 mm CLR
19:59 11.7 °C 3.2 °C 1022.4 hPa SSW 7.6 km/h 13.0 km/h 56% 0.0 mm CLR
20:04 11.6 °C 3.4 °C 1022.4 hPa SSW 7.6 km/h 7.4 km/h 57% 0.0 mm CLR
20:09 11.5 °C 3.3 °C 1022.4 hPa SSW 6.9 km/h 9.3 km/h 57% 0.0 mm CLR
20:14 11.4 °C 3.4 °C 1022.4 hPa SSW 6.9 km/h 5.0 km/h 58% 0.0 mm CLR
20:19 11.4 °C 3.4 °C 1022.4 hPa South 4.7 km/h 7.6 km/h 58% 0.0 mm CLR
20:24 11.3 °C 3.3 °C 1022.4 hPa SSW 4.7 km/h 9.5 km/h 58% 0.0 mm CLR
20:29 11.3 °C 3.6 °C 1022.4 hPa SSW 5.8 km/h 9.3 km/h 59% 0.0 mm CLR
20:34 11.2 °C 3.5 °C 1022.4 hPa South 5.8 km/h 7.4 km/h 59% 0.0 mm CLR
20:39 11.1 °C 3.4 °C 1022.4 hPa South 5.8 km/h 6.4 km/h 59% 0.0 mm CLR
20:44 10.9 °C 3.4 °C 1022.4 hPa South 5.8 km/h 5.0 km/h 60% 0.0 mm CLR
20:49 10.8 °C 3.6 °C 1022.6 hPa South 3.2 km/h 5.6 km/h 61% 0.0 mm CLR
20:54 10.6 °C 3.6 °C 1022.6 hPa South 3.2 km/h 3.9 km/h 62% 0.0 mm CLR
20:59 10.4 °C 3.7 °C 1022.6 hPa SSW 3.2 km/h 7.4 km/h 63% 0.0 mm CLR
21:04 10.4 °C 3.7 °C 1022.5 hPa SSW 3.2 km/h 3.9 km/h 63% 0.0 mm CLR
21:09 10.3 °C 3.6 °C 1022.5 hPa SSW 3.9 km/h 3.9 km/h 63% 0.0 mm CLR
21:14 10.1 °C 3.4 °C 1022.5 hPa North 3.9 km/h 3.7 km/h 63% 0.0 mm CLR
21:19 9.8 °C 3.3 °C 1022.5 hPa WNW 3.2 km/h 7.4 km/h 64% 0.0 mm CLR
21:24 9.6 °C 3.3 °C 1022.5 hPa WNW 3.2 km/h   65% 0.0 mm CLR
21:29 9.5 °C 3.2 °C 1022.5 hPa WSW 2.9 km/h 7.4 km/h 65% 0.0 mm CLR
21:34 9.4 °C 3.4 °C 1022.5 hPa WSW 2.9 km/h 6.4 km/h 66% 0.0 mm CLR
21:39 9.4 °C 3.4 °C 1022.5 hPa WSW 3.9 km/h 5.6 km/h 66% 0.0 mm CLR
21:44 9.3 °C 3.3 °C 1022.5 hPa WSW 3.9 km/h 5.0 km/h 66% 0.0 mm CLR
21:49 9.3 °C 3.5 °C 1022.5 hPa WSW 3.2 km/h 4.7 km/h 67% 0.0 mm CLR
21:54 9.3 °C 3.5 °C 1022.5 hPa SSW 3.2 km/h 7.4 km/h 67% 0.0 mm CLR
21:59 9.2 °C 3.6 °C 1022.5 hPa SSW 4.7 km/h 7.4 km/h 68% 0.0 mm CLR
22:04 9.1 °C 3.5 °C 1022.4 hPa South 4.7 km/h 9.3 km/h 68% 0.0 mm CLR
22:09 9.1 °C 3.7 °C 1022.4 hPa South 6.4 km/h 10.0 km/h 69% 0.0 mm CLR
22:14 9.0 °C 3.6 °C 1022.4 hPa South 6.4 km/h 7.4 km/h 69% 0.0 mm CLR
22:19 9.0 °C 3.8 °C 1022.5 hPa SSW 6.4 km/h 9.3 km/h 70% 0.0 mm CLR
22:25 9.0 °C 3.8 °C 1022.5 hPa SSW 6.4 km/h 9.3 km/h 70% 0.0 mm CLR
22:29 9.0 °C 3.8 °C 1022.5 hPa SSW 6.4 km/h 7.4 km/h 70% 0.0 mm CLR
22:34 9.1 °C 3.9 °C 1022.4 hPa SSW 6.4 km/h 11.1 km/h 70% 0.0 mm CLR
22:39 9.1 °C 3.9 °C 1022.4 hPa SSW 6.4 km/h 10.3 km/h 70% 0.0 mm CLR
22:44 9.1 °C 3.7 °C 1022.4 hPa SW 6.4 km/h 11.1 km/h 69% 0.0 mm CLR
22:49 9.1 °C 3.7 °C 1022.4 hPa SW 7.6 km/h 7.6 km/h 69% 0.0 mm CLR
22:54 9.1 °C 3.7 °C 1022.4 hPa WSW 7.6 km/h 7.4 km/h 69% 0.0 mm CLR
22:59 9.1 °C 3.7 °C 1022.4 hPa SSW 6.9 km/h 11.1 km/h 69% 0.0 mm CLR
23:04 9.1 °C 3.5 °C 1022.1 hPa SW 6.9 km/h 11.1 km/h 68% 0.0 mm CLR
23:09 9.1 °C 3.5 °C 1022.1 hPa SW 8.4 km/h 9.3 km/h 68% 0.0 mm CLR
23:14 8.9 °C 3.3 °C 1022.1 hPa SW 8.4 km/h 7.4 km/h 68% 0.0 mm CLR
23:19 8.9 °C 3.5 °C 1022.1 hPa WSW 5.0 km/h 7.4 km/h 69% 0.0 mm CLR
23:24 8.8 °C 3.4 °C 1022.1 hPa SW 5.0 km/h 9.3 km/h 69% 0.0 mm CLR
23:29 8.7 °C 3.3 °C 1022.1 hPa SW 6.4 km/h 7.4 km/h 69% 0.0 mm CLR
23:34 8.6 °C 3.2 °C 1022.1 hPa WSW 6.4 km/h 9.3 km/h 69% 0.0 mm CLR
23:39 8.6 °C 3.2 °C 1022.1 hPa SW 5.8 km/h 10.0 km/h 69% 0.0 mm CLR
23:44 8.4 °C 3.1 °C 1022.1 hPa SW 5.8 km/h 11.1 km/h 69% 0.0 mm CLR
23:49 8.4 °C 3.2 °C 1022.0 hPa SW 7.6 km/h 9.3 km/h 70% 0.0 mm CLR
23:54 8.2 °C 3.3 °C 1022.0 hPa SSW 7.6 km/h 11.1 km/h 71% 0.0 mm CLR
23:59 8.1 °C 3.2 °C 1022.0 hPa SSW 7.6 km/h 11.1 km/h 71% 0.0 mm CLR
Murcia-Puente Tocinos, España
Compliments of Weather Underground - 2.75 mb

La estación de MeteoMurcia.com, publica sus datos en los siguientes proyectos:

Weather Underground PWS IMURCIAP2 Meteoclimatic www.awekas.at

W3Counter
Web Analytics